DW6471 Weather Reports


Display with metric or nautical units.
time (UTC)temp
F
wind
direction
speed
MPH
gust
MPH
rain 1hr
in
rain 24hr
in
rain mn
in
humidity
%
barometer
mb
20260506221556 78 101 2.0 7.0 0.00 0.45 0.45 89 1012.7
20260506221056 78 213 2.0 7.0 0.00 0.45 0.45 90 1012.7
20260506220553 78 206 1.0 5.0 0.00 0.45 0.45 90 1012.8
20260506220054 78 209 1.0 5.0 0.00 0.45 0.45 90 1012.9
20260506215554 78 232 1.0 5.0 0.00 0.45 0.45 91 1012.9
20260506215053 78 133 1.0 9.0 0.01 0.45 0.45 91 1012.8
20260506214554 78 148 1.0 9.0 0.01 0.45 0.45 91 1012.8
20260506214054 78 182 1.0 5.0 0.01 0.45 0.45 91 1012.8
20260506213551 78 210 1.0 5.0 0.01 0.45 0.45 91 1012.8
20260506213052 78 213 1.0 6.0 0.01 0.45 0.45 92 1012.7
20260506212556 77 177 0.0 4.0 0.01 0.45 0.45 92 1012.8
20260506212552 78 196 1.0 6.0 0.01 0.45 0.45 92 1012.7
20260506211552 77 209 0.0 3.0 0.01 0.45 0.45 92 1013.0
20260506211322 77 210 1.0 2.0 0.01 0.45 0.45 92 1013.0
20260506210550 77 208 1.0 2.0 0.01 0.45 0.45 92 1013.1
20260506210050 77 180 0.0 2.0 0.01 0.45 0.45 92 1013.2
20260506205549 77 232 1.0 2.0 0.01 0.45 0.45 92 1013.2
20260506205050 78 262 1.0 4.0 0.00 0.44 0.44 92 1013.3
20260506204821 78 237 2.0 4.0 0.00 0.44 0.44 93 1013.3
20260506204050 78 225 1.0 4.0 0.00 0.44 0.44 93 1013.3
20260506203550 77 242 0.0 2.0 0.00 0.44 0.44 94 1013.4
20260506203049 77 236 0.0 2.0 0.00 0.44 0.44 94 1013.4
20260506202550 76 205 1.0 5.0 0.01 0.44 0.44 94 1013.5
20260506202322 75 205 2.0 5.0 0.08 0.44 0.44 93 1013.7
20260506201550 75 264 1.0 4.0 0.16 0.44 0.44 93 1013.7
20260506201049 76 257 1.0 3.0 0.22 0.44 0.44 93 1013.7
20260506200548 76 205 1.0 3.0 0.24 0.44 0.44 93 1013.8
20260506200046 76 231 1.0 3.0 0.27 0.44 0.44 93 1013.9
20260506195546 76 262 0.0 3.0 0.32 0.44 0.44 93 1013.8
20260506195044 76 241 0.0 3.0 0.35 0.44 0.44 93 1013.8
20260506194544 76 234 1.0 2.0 0.38 0.44 0.44 93 1014.0
20260506194041 76 236 1.0 3.0 0.39 0.44 0.44 93 1014.1
20260506193542 76 233 1.0 3.0 0.39 0.44 0.44 93 1014.2
20260506193311 76 74 0.0 3.0 0.39 0.44 0.44 92 1013.9
20260506192540 76 230 0.0 2.0 0.38 0.43 0.44 92 1014.2
20260506192040 76 229 0.0 2.0 0.30 0.33 0.36 92 1014.4
20260506191539 76 209 0.0 2.0 0.26 0.28 0.28 92 1014.5
20260506191038 76 209 0.0 2.0 0.20 0.22 0.22 92 1014.5
20260506190538 77 190 0.0 1.0 0.19 0.20 0.20 91 1014.5
20260506190035 77 120 0.0 1.0 0.16 0.17 0.17 91 1014.6
20260506185807 77 86 0.0 2.0 0.11 0.12 0.12 91 1014.5
20260506185035 77 203 1.0 6.0 0.08 0.09 0.09 91 1014.7
20260506184534 77 165 1.0 6.0 0.05 0.06 0.06 90 1014.8
20260506184033 77 212 1.0 3.0 0.04 0.05 0.05 90 1014.8
20260506183534 77 198 0.0 1.0 0.04 0.05 0.05 90 1014.9
20260506183034 77 299 0.0 2.0 0.04 0.05 0.05 90 1014.9
20260506182805 78 299 0.0 2.0 0.04 0.05 0.05 89 1015.0
20260506182306 78 153 1.0 3.0 0.02 0.03 0.04 89 1015.0
20260506181534 78 165 1.0 3.0 0.01 0.02 0.02 88 1015.1
20260506181032 78 221 1.0 3.0 0.01 0.02 0.02 87 1015.1
20260506180531 78 77 1.0 5.0 0.00 0.01 0.01 86 1015.2
20260506180030 78 269 1.0 5.0 0.00 0.01 0.01 86 1015.1
20260506175530 79 201 1.0 4.0 0.00 0.01 0.01 86 1015.2
20260506175029 78 229 1.0 3.0 0.00 0.01 0.01 87 1015.3
20260506174530 78 205 1.0 5.0 0.00 0.01 0.01 87 1015.3
20260506174027 78 162 1.0 5.0 0.00 0.01 0.01 87 1015.3
20260506173528 78 212 1.0 3.0 0.00 0.01 0.01 87 1015.4
20260506173026 78 208 2.0 4.0 0.00 0.01 0.01 86 1015.4
20260506172526 78 148 2.0 8.0 0.00 0.01 0.01 86 1015.4
20260506172024 78 150 2.0 10.0 0.00 0.01 0.01 86 1015.5
20260506171523 79 199 1.0 6.0 0.00 0.01 0.01 85 1015.5
20260506171022 79 206 2.0 6.0 0.00 0.01 0.01 86 1015.5
20260506170521 78 197 1.0 4.0 0.00 0.01 0.01 87 1015.5
20260506170021 78 175 0.0 4.0 0.00 0.01 0.01 88 1015.5
20260506165522 78 205 0.0 2.0 0.00 0.01 0.01 88 1015.4
20260506165022 78 224 0.0 3.0 0.00 0.01 0.01 88 1015.5
20260506164750 77 169 0.0 3.0 0.00 0.01 0.01 88 1015.4
20260506164252 77 177 1.0 3.0 0.00 0.01 0.01 88 1015.4
20260506163751 77 202 1.0 4.0 0.00 0.01 0.01 88 1015.5
20260506163020 77 175 1.0 4.0 0.00 0.01 0.01 88 1015.5
20260506162519 77 134 0.0 2.0 0.00 0.01 0.01 88 1015.5
20260506162019 77 163 0.0 3.0 0.00 0.01 0.01 88 1015.6
20260506161520 77 148 0.0 3.0 0.00 0.01 0.01 88 1015.5
20260506161020 77 204 0.0 2.0 0.00 0.01 0.01 88 1015.4
20260506160520 77 217 0.0 2.0 0.00 0.01 0.01 88 1015.5
20260506160251 77 159 1.0 2.0 0.00 0.01 0.01 88 1015.5
20260506155519 77 202 1.0 3.0 0.01 0.01 0.01 89 1015.4
20260506155020 77 260 1.0 3.0 0.01 0.01 0.01 89 1015.4
20260506154519 77 205 1.0 3.0 0.01 0.01 0.01 88 1015.4
20260506154020 77 207 1.0 3.0 0.01 0.01 0.01 89 1015.4
20260506153751 77 194 1.0 4.0 0.01 0.01 0.01 89 1015.4
20260506153020 77 208 1.0 4.0 0.01 0.01 0.01 89 1015.5
20260506152520 77 191 0.0 3.0 0.01 0.01 0.01 90 1015.4
20260506152020 76 167 0.0 2.0 0.01 0.01 0.01 91 1015.3
20260506151519 76 167 0.0 4.0 0.01 0.01 0.01 91 1015.2
20260506151020 76 207 0.0 4.0 0.01 0.01 0.01 91 1015.3
20260506150519 76 203 0.0 2.0 0.01 0.01 0.01 91 1015.2
20260506150019 75 203 1.0 2.0 0.01 0.01 0.01 91 1015.1
20260506145520 75 207 0.0 2.0 0.00 0.00 0.00 91 1015.1
20260506145019 75 110 0.0 2.0 0.00 0.00 0.00 91 1015.0
20260506144520 75 86 0.0 2.0 0.00 0.00 0.00 91 1014.9
20260506144019 75 198 0.0 2.0 0.00 0.00 0.00 91 1014.9
20260506143519 75 203 0.0 2.0 0.00 0.00 0.00 90 1014.9
20260506143020 75 118 0.0 2.0 0.00 0.00 0.00 90 1014.9
20260506142520 75 293 0.0 1.0 0.00 0.00 0.00 90 1015.0
20260506142250 75 293 0.0 1.0 0.00 0.00 0.00 89 1014.9
20260506141752 75 192 0.0 3.0 0.00 0.00 0.00 89 1014.8
20260506141020 75 195 0.0 3.0 0.00 0.00 0.00 89 1014.8
20260506140519 75 155 0.0 3.0 0.00 0.00 0.00 89 1014.9
20260506140020 75 205 0.0 3.0 0.00 0.00 0.00 89 1014.8
20260506135520 75 127 0.0 3.0 0.00 0.00 0.00 89 1014.7
20260506135019 75 197 0.0 2.0 0.00 0.00 0.00 90 1014.6
20260506134750 75 200 0.0 3.0 0.00 0.00 0.00 90 1014.6
20260506134019 75 122 1.0 3.0 0.00 0.00 0.00 90 1014.6
20260506133520 75 214 1.0 3.0 0.00 0.00 0.00 90 1014.6
20260506133020 75 139 1.0 4.0 0.00 0.00 0.00 91 1014.4
20260506132519 74 82 1.0 6.0 0.00 0.00 0.00 91 1014.3
20260506132251 74 223 1.0 6.0 0.00 0.00 0.00 91 1014.3
20260506131519 74 204 0.0 5.0 0.00 0.00 0.00 92 1014.3
20260506131019 74 210 1.0 5.0 0.00 0.00 0.00 92 1014.3
20260506130520 74 209 1.0 5.0 0.00 0.00 0.00 92 1014.3
20260506130251 74 216 0.0 2.0 0.00 0.00 0.00 92 1014.3
20260506125519 73 234 1.0 3.0 0.00 0.00 0.00 93 1014.2
20260506125020 73 185 1.0 3.0 0.00 0.00 0.00 93 1014.0
20260506124519 73 231 0.0 2.0 0.00 0.00 0.00 93 1014.0
20260506124019 73 226 0.0 2.0 0.00 0.00 0.00 93 1014.0
20260506123520 73 203 0.0 3.0 0.00 0.00 0.00 94 1014.0
20260506123017 73 210 0.0 3.0 0.00 0.00 0.00 94 1013.9
20260506122517 73 217 0.0 2.0 0.00 0.00 0.00 94 1013.9
20260506122018 72 220 0.0 2.0 0.00 0.00 0.00 94 1013.8
20260506121517 72 209 0.0 1.0 0.00 0.00 0.00 94 1013.7
20260506121250 72 207 0.0 2.0 0.00 0.00 0.00 94 1013.7
20260506120747 72 196 0.0 2.0 0.00 0.00 0.00 94 1013.6
20260506120016 0 0.0 0.0 0.00 0.00 0.00 1013.5
20260506115514 0 0.0 0.0 0.00 0.00 0.00 1013.4
20260506115013 0 0.0 0.0 0.00 0.00 0.00 1013.3
20260506114512 0 0.0 0.0 0.00 0.00 0.00 1013.4
20260506113918 0 0.0 0.0 0.00 0.00 0.00 1013.3
20260506113413 0 0.0 0.0 0.00 0.00 0.00 1013.2
20260506112912 0 0.0 0.0 0.00 0.00 0.00 1013.1
20260506112407 0 0.0 0.0 0.00 0.00 0.00 1013.1
20260506111816 0 0.0 0.0 0.00 0.00 0.00 1013.1
20260506111316 0 0.0 0.0 0.00 0.00 0.00 1012.9
20260506110816 0 0.0 0.0 0.00 0.00 0.00 1012.8
20260506110314 0 0.0 0.0 0.00 0.00 0.00 1012.6
20260506105811 70 159 0.0 1.0 0.00 0.00 0.00 94 1012.6
20260506105312 70 159 0.0 1.0 0.00 0.00 0.00 94 1012.6
20260506104809 70 159 0.0 1.0 0.00 0.00 0.00 94 1012.4
20260506104536 69 155 0.0 1.0 0.00 0.00 0.00 94 1012.3
20260506104037 69 129 0.0 1.0 0.00 0.00 0.00 94 1012.3
20260506103305 69 129 0.0 1.0 0.00 0.00 0.00 94 1012.3
20260506102805 68 129 0.0 1.0 0.00 0.00 0.00 94 1012.3
20260506102306 68 129 0.0 1.0 0.00 0.00 0.00 94 1012.2
20260506101805 68 187 0.0 0.0 0.00 0.00 0.00 94 1012.0
20260506101305 68 187 0.0 1.0 0.00 0.00 0.00 94 1012.0
20260506100804 68 187 0.0 1.0 0.00 0.00 0.00 94 1012.0
20260506100301 68 203 0.0 1.0 0.00 0.00 0.00 94 1011.9
20260506095802 68 156 0.0 1.0 0.00 0.00 0.00 94 1011.7
20260506095305 68 156 0.0 1.0 0.00 0.00 0.00 94 1011.7
20260506094801 68 156 0.0 3.0 0.00 0.00 0.00 94 1011.6
20260506094301 68 174 0.0 3.0 0.00 0.00 0.00 94 1011.6
20260506093800 68 193 0.0 2.0 0.00 0.00 0.00 94 1011.7
20260506093257 68 192 0.0 1.0 0.00 0.00 0.00 94 1011.7
20260506093028 68 192 0.0 1.0 0.00 0.00 0.00 94 1011.7
20260506092253 67 181 0.0 1.0 0.00 0.00 0.00 94 1011.7
20260506091753 67 191 0.0 0.0 0.00 0.00 0.00 93 1011.8
20260506091252 67 191 0.0 0.0 0.00 0.00 0.00 93 1011.8
20260506090749 67 191 0.0 0.0 0.00 0.00 0.00 93 1011.8
20260506090249 67 191 0.0 0.0 0.00 0.00 0.00 93 1011.9
20260506085748 67 191 0.0 0.0 0.00 0.00 0.00 93 1011.9
20260506085245 67 191 0.0 0.0 0.00 0.00 0.00 93 1011.9
20260506084745 68 191 0.0 3.0 0.00 0.00 0.00 93 1012.0
20260506084244 68 191 0.0 3.0 0.00 0.00 0.00 93 1012.0
20260506084012 68 164 0.0 0.0 0.00 0.00 0.00 93 1012.0
20260506083241 68 164 0.0 1.0 0.00 0.00 0.00 93 1012.2
20260506082742 68 164 0.0 1.0 0.00 0.00 0.00 93 1012.2
20260506082245 68 177 0.0 1.0 0.00 0.00 0.00 93 1012.0
20260506082241 68 176 0.0 1.0 0.00 0.00 0.00 93 1012.2
20260506081512 68 188 0.0 1.0 0.00 0.00 0.00 93 1012.2
20260506080746 68 193 0.0 2.0 0.00 0.00 0.00 93 1012.3
20260506080742 68 191 0.0 1.0 0.00 0.00 0.00 93 1012.3
20260506073235 67 191 0.0 3.0 0.00 0.00 0.00 93 1012.4
20260506072739 67 191 0.0 3.0 0.00 0.00 0.00 93 1012.5
20260506072734 67 163 0.0 1.0 0.00 0.00 0.00 92 1012.5
20260506071734 67 166 0.0 0.0 0.00 0.00 0.00 92 1012.5
20260506071233 67 166 0.0 1.0 0.00 0.00 0.00 92 1012.6
20260506070733 67 167 0.0 2.0 0.00 0.00 0.00 92 1012.7
20260506070232 67 167 0.0 2.0 0.00 0.00 0.00 92 1012.6
20260506062225 68 142 0.0 1.0 0.00 0.00 0.00 91 1013.1
20260506061724 68 146 0.0 1.0 0.00 0.00 0.00 91 1013.1
20260506061224 68 146 0.0 1.0 0.00 0.00 0.00 91 1013.2
20260506060723 68 101 0.0 2.0 0.00 0.00 0.00 90 1013.1
20260506060224 68 131 0.0 2.0 0.00 0.00 0.00 90 1013.1
20260506051218 68 172 0.0 1.0 0.00 0.00 0.00 91 1013.7
20260506050717 68 158 0.0 1.0 0.00 0.00 0.00 91 1013.7
20260506050218 68 158 0.0 1.0 0.00 0.00 0.00 90 1013.7
20260506044715 68 157 0.0 1.0 0.00 0.00 0.00 90 1013.8
20260506044216 68 157 0.0 1.0 0.00 0.00 0.00 90 1013.8
20260506043716 68 158 0.0 2.0 0.00 0.00 0.00 90 1013.9
20260506043216 68 162 0.0 2.0 0.00 0.00 0.00 90 1013.9
20260506042716 68 151 0.0 3.0 0.00 0.00 0.00 90 1013.9
20260506042215 68 151 0.0 3.0 0.00 0.00 0.00 90 1013.9
20260506041713 68 135 0.0 1.0 0.00 0.00 0.00 89 1014.0
20260506041214 69 135 0.0 1.0 0.00 0.00 0.00 90 1014.0
20260506040946 69 135 0.0 1.0 0.00 0.00 0.00 89 1014.0
20260506040214 69 135 0.0 2.0 0.00 0.00 0.00 89 1014.1
20260506035713 69 135 0.0 2.0 0.00 0.00 0.00 89 1014.1
20260506035213 69 131 0.0 1.0 0.00 0.00 0.00 89 1014.1
20260506034714 69 131 0.0 1.0 0.00 0.00 0.00 89 1014.2
20260506034213 69 131 0.0 1.0 0.00 0.00 0.00 89 1014.2
20260506033713 69 131 0.0 1.0 0.00 0.00 0.00 89 1014.3
20260506033212 69 131 0.0 1.0 0.00 0.00 0.00 88 1014.3
20260506032711 69 131 0.0 1.0 0.00 0.00 0.00 88 1014.4
20260506032442 69 131 0.0 1.0 0.00 0.00 0.00 88 1014.4
20260506031712 69 131 0.0 1.0 0.00 0.00 0.00 88 1014.4
20260506031212 69 129 0.0 1.0 0.00 0.00 0.00 87 1014.4
20260506030712 69 129 0.0 1.0 0.00 0.00 0.00 87 1014.3
20260506030211 69 129 0.0 1.0 0.00 0.00 0.00 87 1014.1
20260506025712 69 129 0.0 1.0 0.00 0.00 0.00 87 1014.1
20260506025212 69 128 0.0 1.0 0.00 0.00 0.00 86 1014.2
20260506024711 69 128 0.0 1.0 0.00 0.00 0.00 86 1014.2
20260506024212 69 129 0.0 1.0 0.00 0.00 0.00 86 1014.1
20260506023712 69 129 0.0 1.0 0.00 0.00 0.00 86 1014.1
20260506023212 70 129 0.0 1.0 0.00 0.00 0.00 86 1014.1
20260506022712 70 129 0.0 1.0 0.00 0.00 0.00 85 1014.0
20260506022211 70 129 0.0 1.0 0.00 0.00 0.00 85 1014.0
20260506021712 70 128 0.0 1.0 0.00 0.00 0.00 85 1014.0
20260506021209 70 129 0.0 1.0 0.00 0.00 0.00 84 1013.9
20260506020938 70 129 0.0 2.0 0.00 0.00 0.00 84 1013.9
20260506020438 71 129 0.0 2.0 0.00 0.00 0.00 84 1013.9
20260506015707 71 198 0.0 0.0 0.00 0.00 0.00 83 1013.9
20260506015208 71 198 0.0 2.0 0.00 0.00 0.00 83 1013.9
20260506014707 71 198 1.0 4.0 0.00 0.00 0.00 83 1013.9
20260506014212 71 108 1.0 2.0 0.00 0.00 0.00 82 1013.7
20260506014208 71 210 1.0 4.0 0.00 0.00 0.00 83 1013.9
20260506013208 71 221 1.0 2.0 0.00 0.00 0.00 82 1013.8
20260506012708 71 209 0.0 2.0 0.00 0.00 0.00 81 1013.7
20260506012206 72 147 0.0 2.0 0.00 0.00 0.00 81 1013.6
20260506011703 72 201 0.0 3.0 0.00 0.00 0.00 80 1013.7
20260506011204 72 169 0.0 3.0 0.00 0.00 0.00 80 1013.7
20260506010703 72 202 1.0 3.0 0.00 0.00 0.00 80 1013.6
20260506010202 72 190 1.0 2.0 0.00 0.00 0.00 79 1013.7
20260506005702 72 211 0.0 2.0 0.00 0.00 0.00 79 1013.7
20260506005201 73 204 0.0 2.0 0.00 0.00 0.00 78 1013.7
20260506004933 73 87 1.0 2.0 0.00 0.00 0.00 78 1013.6
20260506004200 73 208 1.0 4.0 0.00 0.00 0.00 77 1013.6
20260506003700 73 229 1.0 4.0 0.00 0.00 0.00 77 1013.5
20260506003159 73 205 1.0 2.0 0.00 0.00 0.00 76 1013.5
20260506002658 73 203 1.0 5.0 0.00 0.00 0.00 76 1013.5
20260506002157 74 211 1.0 6.0 0.00 0.00 0.00 75 1013.3
20260506001658 74 155 1.0 6.0 0.00 0.00 0.00 74 1013.4
20260506001158 74 212 1.0 4.0 0.00 0.00 0.00 74 1013.4
20260506000655 74 180 1.0 5.0 0.00 0.00 0.00 73 1013.3
20260506000156 74 167 1.0 5.0 0.00 0.00 0.00 73 1013.3
20260505235927 75 274 1.0 3.0 0.00 0.00 0.00 72 1013.4
20260505235154 75 221 1.0 4.0 0.00 0.00 0.00 71 1013.4
20260505234654 75 236 1.0 4.0 0.00 0.00 0.00 71 1013.5
20260505234154 75 205 1.0 9.0 0.00 0.00 0.00 70 1013.4
20260505233654 76 206 1.0 9.0 0.00 0.00 0.00 69 1013.5
20260505233155 76 212 1.0 4.0 0.00 0.00 0.00 68 1013.6
20260505233151 76 252 1.0 4.0 0.00 0.00 0.00 69 1013.6
20260505232149 76 203 1.0 4.0 0.00 0.00 0.00 67 1013.6
20260505231650 77 213 1.0 9.0 0.00 0.00 0.00 67 1013.5
20260505231421 77 205 2.0 9.0 0.00 0.00 0.00 66 1013.5
20260505230649 77 205 2.0 6.0 0.00 0.00 0.00 65 1013.5
20260505230148 78 209 1.0 6.0 0.00 0.00 0.00 64 1013.6
20260505225648 78 198 1.0 6.0 0.00 0.00 0.00 64 1013.6
20260505225146 78 228 1.0 6.0 0.00 0.00 0.00 63 1013.5
20260505224645 79 181 2.0 6.0 0.00 0.00 0.00 62 1013.5
20260505224144 79 205 1.0 6.0 0.00 0.00 0.00 62 1013.5
20260505223644 79 224 1.0 5.0 0.00 0.00 0.00 62 1013.5
20260505223144 78 179 1.0 5.0 0.00 0.00 0.00 64 1013.5
20260505222641 78 185 1.0 7.0 0.00 0.00 0.00 64 1013.5
20260505222142 78 221 2.0 7.0 0.00 0.00 0.00 63 1013.5